[[{"header":{"parameterUnit":"m.s-1","parameterCategory":1,"la1":30.2991,"la2":30.254,"lo1":-89.0895,"lo2":-89.0444,"dy":0.0017,"dx":0.0017,"nx":28,"ny":28,"refTime":"2024-07-16T09:00:00:Z","depth":0,"parameterNumber":2,"parameterNumberName":"U-component_of_WINDS"},"data":[0,0,0,0,0,0,0,0,0,0,0,0,0,0,0,0,0,0,0,0,0,0,0,0,0,0,0,0,0,0,0,0,0,0,0,0,0,0,0,0,0,0,0,0,0,0,0,0,0,0,0,0,0,0,0,0,0,0,1.6555,1.6555,0,1.6616,1.6616,1.6617,1.6618,1.6617,1.6616,1.6616,1.6676,1.6678,1.668,0,0,0,0,0,0,0,0,0,0,0,0,0,1.6434,1.6436,1.6554,1.6555,1.6556,1.6616,1.6616,1.6617,1.6618,1.6617,1.6616,1.6615,1.6675,1.6678,1.6681,0,0,0,0,0,0,0,0,0,0,0,0,0,1.649,1.6437,1.6554,1.6564,1.6565,1.6615,1.6616,1.6617,1.6618,1.6617,1.6616,1.6615,1.6674,1.6678,1.6681,1.6726,0,0,1.6692,1.6693,0,0,0,0,0,0,0,0,1.6487,1.6494,1.6561,1.6563,1.6565,1.6608,1.6596,1.6654,1.6618,1.6598,1.6616,1.6614,1.6654,1.6659,1.6673,1.6728,1.6731,1.6692,1.6694,1.6696,1.6697,0,0,0,0,0,0,0,1.6483,1.6492,1.6579,1.6562,1.6564,1.6563,1.657,1.6607,1.6632,1.66,1.66,1.6607,1.6655,1.667,1.6674,1.6732,1.6692,1.6695,1.6697,1.6698,1.6824,1.6825,0,0,0,0,0,0,1.6478,1.6488,1.6577,1.658,1.6522,1.6566,1.6574,1.6595,1.6631,1.6636,1.6608,1.6607,1.6664,1.667,1.6677,1.6729,1.6696,1.6699,1.6701,1.6822,1.6824,1.6825,0,0,0,0,0,0,1.6475,1.6486,1.6574,1.6535,1.6546,1.657,1.6594,1.6597,1.6612,1.6638,1.6642,1.6619,1.6664,1.6672,1.6713,1.6731,1.67,1.6704,1.6821,1.6823,1.6825,1.6835,0,0,0,0,0,0,1.6472,1.6485,1.6503,1.6535,1.6548,1.6611,1.6595,1.6599,1.6618,1.6617,1.6649,1.6653,1.6663,1.6708,1.6716,1.6735,1.6706,1.6819,1.6822,1.6824,1.6833,1.6837,1.6841,0,0,0,0,0,1.6467,1.6504,1.6504,1.6514,1.6571,1.6612,1.6619,1.6631,1.662,1.6637,1.6653,1.6652,1.6728,1.6712,1.6722,1.6742,1.6818,1.6821,1.6824,1.6832,1.6836,1.6841,0,0,0,0,0,0,1.6472,1.6508,1.6509,1.6557,1.6581,1.6612,1.6635,1.6636,1.6663,1.6661,1.6674,1.6681,1.6721,1.6736,1.6717,1.6785,1.6772,1.6776,1.6774,1.6779,1.6783,1.6777,1.6709,0,0,0,0,0,1.6479,1.651,1.6539,1.6579,1.6591,1.6611,1.6629,1.6635,1.6661,1.6671,1.669,1.6714,1.6743,1.6762,1.6791,1.6836,1.6841,1.6854,1.6858,1.6861,1.6864,1.6887,1.6892,1.6834,1.6834,1.6834,0,0,1.6493,1.6517,1.6535,1.658,1.66,1.663,1.6619,1.6652,1.6674,1.6676,1.6716,1.673,1.6758,1.6801,1.682,1.6814,1.6882,1.6864,1.6866,1.6869,1.689,1.6896,1.69,1.6836,1.6836,1.6836,0,0,1.6534,1.6556,1.659,1.661,1.664,1.6653,1.6661,1.6691,1.6701,1.6741,1.6742,1.6768,1.6818,1.6837,1.6853,1.6899,1.6898,1.6908,1.6926,1.6948,1.6952,1.6957,1.6971,1.6976,1.6912,1.6912,1.6912,0,1.6548,1.6594,1.6607,1.664,1.6658,1.6662,1.6695,1.6713,1.6751,1.6763,1.6755,1.6817,1.6836,1.6882,1.6893,1.6907,1.6915,1.6904,1.6951,1.6955,1.6959,1.6973,1.6978,1.6913,1.6913,1.6912,1.6912,0,1.6608,1.664,1.6664,1.67,1.6721,1.6754,1.677,1.679,1.6794,1.6807,1.6846,1.6869,1.6901,1.6913,1.6918,1.6959,1.6953,1.6949,1.6935,1.6965,1.6978,1.6984,1.6914,1.6914,1.6913,1.6913,0,0,1.6654,1.6696,1.6704,1.6719,1.6752,1.6777,1.6808,1.684,1.6856,1.6881,1.6907,1.6948,1.6943,1.6962,1.6969,1.6988,1.702,1.698,1.6981,1.6985,1.7063,1.7066,1.7072,1.702,1.7021,1.7022,1.706,0,1.6697,1.6754,1.6766,1.6815,1.6843,1.6846,1.6874,1.6896,1.6908,1.6933,1.6946,1.6975,1.6967,1.6978,1.6997,1.7012,1.7035,1.7009,1.7042,1.7043,1.7033,1.7079,1.7082,1.7117,1.7066,1.7067,1.7067,0,1.6754,1.6781,1.6833,1.686,1.6872,1.6897,1.6925,1.695,1.6974,1.6981,1.7001,1.7005,1.7037,1.7022,1.7064,1.7046,1.706,1.7069,1.707,1.7073,1.7056,1.708,1.7129,1.7134,1.7076,1.7075,1.7074,0,1.678,1.6829,1.6865,1.6879,1.6912,1.6929,1.6943,1.6966,1.6984,1.7008,1.7019,1.7047,1.7062,1.7083,1.7094,1.7083,1.7134,1.7121,1.7139,1.7139,1.7149,1.7148,1.7199,1.7161,1.7161,1.7161,1.7161,0,1.6825,1.6856,1.6877,1.69,1.6934,1.6946,1.6979,1.6993,1.7013,1.7037,1.7042,1.7064,1.7078,1.7101,1.711,1.7142,1.7149,1.7155,1.7157,1.7154,1.7153,1.7162,1.7159,1.7162,1.7162,1.7162,1.7162,0,1.6859,1.6874,1.6914,1.6942,1.695,1.6973,1.6996,1.7017,1.7029,1.7059,1.7067,1.7086,1.7113,1.7127,1.7162,1.7167,1.7203,1.7204,1.7195,1.7195,1.7212,1.7209,1.7269,1.7277,1.7235,1.7236,1.7236,0,1.6886,1.691,1.694,1.6956,1.6971,1.6998,1.7016,1.7028,1.7046,1.7074,1.7091,1.7119,1.7142,1.7186,1.7202,1.7228,1.7229,1.7248,1.7232,1.7228,1.7226,1.7224,1.7225,1.725,1.725,1.7251,1.7251,0,1.6932,1.6938,1.6964,1.6991,1.7012,1.7035,1.7057,1.707,1.7085,1.7105,1.7133,1.7151,1.7186,1.7213,1.724,1.7253,1.7254,1.7256,1.7261,1.7257,1.725,1.7252,1.72,1.7254,1.7254,1.7253,1.7253,1.7253,1.6962,1.6982,1.7006,1.7034,1.7051,1.7071,1.7092,1.7106,1.7131,1.716,1.7166,1.7195,1.7217,1.7253,1.7267,1.7289,1.7285,1.7293,1.7295,1.7296,1.7296,1.7248,1.7295,1.7295,1.7294,1.7294,1.7294,0,1.7006,1.7021,1.7047,1.7077,1.7098,1.7098,1.7122,1.7139,1.7165,1.7186,1.7208,1.724,1.7266,1.7283,1.7309,1.7323,1.7324,1.7329,1.7328,1.733,1.73,1.7292,1.7328,1.7328,1.7328,1.7328,1.7328,1.7328,1.7031,1.7065,1.7074,1.7116,1.713,1.716,1.7173,1.7191,1.7207,1.7242,1.7264,1.7275,1.7294,1.7321,1.7344,1.7348,1.7356,1.7361,1.7365,1.7336,1.7333,1.7329,1.7322,1.7364,1.7364,1.7394,1.7394,1.7394]},{"header":{"parameterUnit":"m.s-1","parameterCategory":1,"la1":30.2991,"la2":30.254,"lo1":-89.0895,"lo2":-89.0444,"dy":0.0017,"dx":0.0017,"nx":28,"ny":28,"refTime":"2024-07-16T09:00:00:Z","depth":0,"parameterNumber":3,"parameterNumberName":"V-component_of_WINDS"},"data":[0,0,0,0,0,0,0,0,0,0,0,0,0,0,0,0,0,0,0,0,0,0,0,0,0,0,0,0,0,0,0,0,0,0,0,0,0,0,0,0,0,0,0,0,0,0,0,0,0,0,0,0,0,0,0,0,0,0,4.8207,4.8207,0,4.8224,4.8224,4.8224,4.8153,4.8151,4.8148,4.8146,4.8161,4.8164,4.8166,0,0,0,0,0,0,0,0,0,0,0,0,0,4.8109,4.8111,4.8207,4.8207,4.8207,4.8224,4.8224,4.8224,4.8153,4.815,4.8148,4.8146,4.8161,4.8163,4.8166,0,0,0,0,0,0,0,0,0,0,0,0,0,4.8141,4.8112,4.8207,4.8174,4.8171,4.8224,4.8224,4.8224,4.8154,4.815,4.8147,4.8144,4.816,4.8163,4.8166,4.8251,0,0,4.8177,4.8179,0,0,0,0,0,0,0,0,4.814,4.8145,4.8178,4.8176,4.8173,4.8183,4.8195,4.8233,4.8154,4.816,4.8146,4.8143,4.8171,4.8173,4.8183,4.8252,4.8252,4.8178,4.818,4.8181,4.8182,0,0,0,0,0,0,0,4.8137,4.8144,4.8213,4.8179,4.8176,4.8157,4.8158,4.8202,4.8183,4.8159,4.8154,4.8157,4.8169,4.818,4.8183,4.8252,4.8177,4.8181,4.8183,4.8184,4.8389,4.8392,0,0,0,0,0,0,4.814,4.8142,4.8213,4.8214,4.8148,4.8161,4.8162,4.8183,4.8182,4.8179,4.816,4.8154,4.8176,4.8179,4.8183,4.828,4.8181,4.8184,4.8186,4.8386,4.839,4.8393,0,0,0,0,0,0,4.8138,4.8147,4.8212,4.8177,4.8184,4.8166,4.819,4.8185,4.8196,4.8183,4.8179,4.8175,4.8173,4.8178,4.8234,4.828,4.8186,4.8189,4.8382,4.8387,4.8391,4.8476,0,0,0,0,0,0,4.8136,4.8147,4.818,4.8178,4.8186,4.8264,4.8193,4.8187,4.8203,4.8195,4.8196,4.8193,4.8171,4.8229,4.8238,4.8283,4.8192,4.8377,4.8384,4.839,4.8469,4.8484,4.8496,0,0,0,0,0,4.8132,4.8203,4.8182,4.819,4.8227,4.8267,4.8271,4.8245,4.8207,4.8239,4.823,4.8193,4.8274,4.8236,4.8245,4.8292,4.8374,4.8382,4.8389,4.8463,4.8481,4.8496,0,0,0,0,0,0,4.8209,4.8202,4.8178,4.8251,4.826,4.8255,4.8294,4.8265,4.8285,4.8277,4.8243,4.8244,4.8305,4.8304,4.8262,4.8372,4.8317,4.8327,4.8371,4.8387,4.84,4.8398,4.8195,0,0,0,0,0,4.8235,4.8269,4.8261,4.8325,4.8331,4.8312,4.8329,4.8308,4.8316,4.832,4.8315,4.8323,4.835,4.8369,4.8393,4.8469,4.8467,4.8506,4.8519,4.853,4.8538,4.8576,4.8593,4.8418,4.8418,4.8418,0,0,4.8287,4.8288,4.8311,4.834,4.8345,4.838,4.8316,4.8356,4.8381,4.8325,4.8377,4.8375,4.8382,4.8448,4.8476,4.8448,4.8586,4.854,4.8549,4.8551,4.8586,4.8602,4.8617,4.8423,4.8422,4.8421,0,0,4.8401,4.8406,4.8459,4.8465,4.8473,4.846,4.8473,4.8472,4.8468,4.852,4.8479,4.8508,4.8556,4.8562,4.8572,4.8687,4.8653,4.8696,4.8764,4.8802,4.8816,4.8828,4.8867,4.8882,4.8704,4.8705,4.8705,0,4.8465,4.8517,4.8489,4.8532,4.8545,4.8497,4.855,4.8557,4.8573,4.8582,4.8551,4.8609,4.8611,4.8677,4.8705,4.8715,4.8727,4.8695,4.8816,4.8828,4.8839,4.8876,4.8891,4.8709,4.8709,4.8708,4.8708,0,4.8594,4.8631,4.8672,4.8689,4.8707,4.8755,4.8733,4.8754,4.8732,4.8722,4.8775,4.8775,4.8798,4.8813,4.8791,4.8875,4.8857,4.8822,4.8766,4.8861,4.8895,4.8909,4.8717,4.8715,4.8713,4.8712,0,0,4.8755,4.8756,4.8772,4.8778,4.8783,4.8811,4.8855,4.8878,4.8896,4.8909,4.8944,4.8986,4.8953,4.8964,4.8943,4.8976,4.9065,4.8936,4.8936,4.8958,4.9155,4.918,4.9197,4.9043,4.9046,4.9048,4.9154,0,4.8865,4.8942,4.8918,4.8995,4.9027,4.8982,4.9021,4.9028,4.9019,4.9045,4.9035,4.9064,4.902,4.9026,4.9057,4.9048,4.9104,4.904,4.9074,4.9076,4.9072,4.9215,4.9242,4.9342,4.9167,4.9169,4.9171,0,4.9003,4.9021,4.9101,4.91,4.9112,4.9148,4.9166,4.9191,4.9198,4.9189,4.9202,4.9173,4.9216,4.9161,4.9218,4.9175,4.9188,4.9185,4.9188,4.9189,4.9128,4.9218,4.9374,4.9388,4.9192,4.919,4.9189,0,4.911,4.9154,4.9207,4.9215,4.9215,4.924,4.9242,4.9245,4.926,4.9276,4.9285,4.9306,4.9317,4.9333,4.931,4.9273,4.937,4.9314,4.9363,4.9363,4.9384,4.9382,4.9542,4.9396,4.9395,4.9395,4.9395,0,4.9233,4.9284,4.9255,4.9288,4.9342,4.9315,4.9369,4.9365,4.9368,4.9398,4.9361,4.939,4.936,4.9385,4.9368,4.9417,4.9423,4.9416,4.941,4.9418,4.9419,4.9425,4.9416,4.9399,4.9398,4.9397,4.9397,0,4.9361,4.9345,4.9399,4.9395,4.9396,4.9436,4.9432,4.9461,4.945,4.9489,4.9496,4.9479,4.9507,4.9487,4.9515,4.9504,4.9567,4.9553,4.9565,4.956,4.961,4.9605,4.9777,4.9797,4.964,4.9641,4.9643,0,4.944,4.9478,4.9478,4.9496,4.9499,4.9529,4.9543,4.9517,4.9534,4.9544,4.9572,4.9597,4.9615,4.9663,4.9652,4.9673,4.9658,4.9717,4.966,4.9667,4.9656,4.9653,4.9656,4.9727,4.9729,4.9731,4.9732,0,4.9582,4.9571,4.9595,4.9615,4.9634,4.9649,4.966,4.9677,4.965,4.9671,4.9699,4.9714,4.9742,4.9767,4.9785,4.9784,4.9753,4.975,4.9762,4.9769,4.9774,4.977,4.9594,4.9746,4.9744,4.9743,4.9743,4.9742,4.9686,4.9717,4.9721,4.9748,4.9754,4.9765,4.9792,4.9785,4.9808,4.983,4.9813,4.9847,4.9851,4.9871,4.9875,4.99,4.9876,4.9894,4.9898,4.9902,4.9908,4.9772,4.9903,4.9903,4.9903,4.9902,4.9902,0,4.9823,4.9824,4.9849,4.9866,4.9887,4.9857,4.9868,4.9887,4.9918,4.9925,4.9944,4.9976,5.0,4.9991,5.0012,5.0034,5.002,5.004,5.0037,5.0037,4.993,4.9916,5.0051,5.0051,5.0051,5.0051,5.0051,5.0051,4.9897,4.9947,4.9937,4.9989,4.9989,5.0022,5.003,5.004,5.0045,5.0083,5.0103,5.0098,5.0098,5.0119,5.0139,5.0135,5.0144,5.0169,5.0161,5.006,5.0045,5.0031,5.0018,5.0172,5.0172,5.0265,5.0266,5.0267]}]]